Regional Weather Roundup
Issued by NWS

Home | Current Version | Previous Version | Text Only | Print | Product List | Glossary On
Versions: 1 2 3 4 5 6 7 8 9 10 11 12 13 14 15 16 17 18 19 20 21 22 23 24 25 26 27 28 29 30 31 32 33 34 35 36 37 38 39 40 41 42 43 44 45 46 47 48 49 50
568
ASUS44 KJAN 210110
RWRMS

MISSISSIPPI HOURLY WEATHER ROUNDUP
NATIONAL WEATHER SERVICE JACKSON MS
700 PM CST SAT DEC 20 2014

NOTE: "FAIR: INDICATES FEW OR NO CLOUDS BELOW 12,000 FEET WITH NO
SIGNIFICANT WEATHER AND/OR OBSTRUCTIONS TO VISIBILITY.

MSZ001>002-007>008-010>013-018>021-025>028-034>036-210200-
NORTHWEST MISSISSIPPI

CITY           SKY/WX    TMP DP  RH WIND       PRES   REMARKS
CLARKSDALE     FAIR      41  39  93 CALM      30.24S
CLEVELAND      FAIR      43  40  91 N7        30.22S
GREENWOOD      CLEAR     42  35  76 NE6       30.20S
GREENVILLE     CLEAR     44  39  82 N7        30.20S
GRENADA        FAIR      37  37 100 CALM      30.22S
OLIVE BRANCH   PTCLDY    39  37  93 N5        30.23S
OXFORD         FAIR      37  34  87 CALM      30.23S
TUNICA         CLEAR     37  34  87 N8        30.25S WCI  31
$$

MSZ003>006-009-014>017-022>024-029>033-037>039-210200-
NORTHEAST MISSISSIPPI

CITY           SKY/WX    TMP DP  RH WIND       PRES   REMARKS
COLUMBUS AFB   NOT AVBL
CORINTH        FAIR      41  32  70 NE6       30.23R
STARKVILLE     FAIR      43  37  81 CALM      30.20S
TUPELO         CLEAR     41  33  73 NE6       30.22R
$$

MSZ040-058-210200-
CENTRAL MISSISSIPPI

CITY           SKY/WX    TMP DP  RH WIND       PRES   REMARKS
JACKSON INTL   MOCLDY    45  41  86 CALM      30.19R
JACKSON HAWKNS PTCLDY    49  40  71 NE3       30.18R
MERIDIAN KEY   PTCLDY    41  39  93 N3        30.19R
MERIDIAN NAS   PTCLDY    43  40  89 N3        30.19R
RAYMOND        FAIR      43  39  87 CALM      30.19R
VICKSBURG      PTCLDY    46  40  79 N9        30.20R
$$

MSZ059>079-210200-
SOUTH MISSISSIPPI

CITY           SKY/WX    TMP DP  RH WIND       PRES   REMARKS
HATTIESBURG    CLOUDY    52  45  77 N8        30.17S
MCCOMB         MOCLDY    50  44  80 NE5       30.16R
NATCHEZ        MOCLDY    48  41  76 CALM      30.18R
PINE BELT      CLOUDY    52  43  71 NE6       30.18R
$$

MSZ080>082-210200-
COASTAL MISSISSIPPI

CITY           SKY/WX    TMP DP  RH WIND       PRES   REMARKS
BAY ST LOUIS   CLOUDY    52  45  76 N12       30.16R
BILOXI         CLOUDY    52  49  90 NE12      30.14R
PASCAGOULA     CLOUDY    51  48  89 N8        30.15R
GULFPORT       CLOUDY    52  47  83 N10       30.14R
$$



USA.gov is the U.S. government's official web portal to all federal, state and local government web resources and services.